This is the latest recevied weather packets stored in our database for station/object KD0MAC. If no packets are shown the sender has not sent any weather packets the latest 10 day(s).
| Time | Temp. | Humidity | Pressure | Rain* | Wind** | Luminosity | Snow |
|---|---|---|---|---|---|---|---|
| 1788049329 | 34.44° C | 39% | 1009.5 hPa | 0 mm | - | 35 W/m² | - |
| 1788049031 | 35° C | 38% | 1009.5 hPa | 0 mm | - | 40 W/m² | - |
| 1788048730 | 35° C | 36% | 1009.5 hPa | 0 mm | - | 45 W/m² | - |
| 1788048429 | 35° C | 37% | 1009.5 hPa | 0 mm | - | 50 W/m² | - |
| 1788048130 | 35° C | 38% | 1009.5 hPa | 0 mm | - | 51 W/m² | - |
| 1788047830 | 35° C | 36% | 1009.5 hPa | 0 mm | - | 84 W/m² | - |
| 1788047529 | 35.56° C | 35% | 1009.5 hPa | 0 mm | - | 104 W/m² | - |
| 1788047230 | 36.11° C | 34% | 1009.5 hPa | 0 mm | - | 85 W/m² | - |
| 1788046930 | 36.11° C | 33% | 1009.5 hPa | 0 mm | - | 129 W/m² | - |
| 1788046630 | 36.67° C | 33% | 1009.5 hPa | 0 mm | - | 145 W/m² | - |
| 1788046330 | 36.67° C | 33% | 1009.5 hPa | 0 mm | - | 158 W/m² | - |
| 1788046030 | 36.67° C | 33% | 1009.5 hPa | 0 mm | - | 172 W/m² | - |
| 1788045729 | 37.22° C | 33% | 1009.5 hPa | 0 mm | - | 184 W/m² | - |
| 1788045437 | 37.22° C | 33% | 1009.5 hPa | 0 mm | - | 184 W/m² | - |
| 1788045129 | 37.22° C | 33% | 1009.5 hPa | 0 mm | - | 196 W/m² | - |
| 1788044830 | 37.22° C | 32% | 1009.5 hPa | 0 mm | - | 208 W/m² | - |
| 1788044530 | 37.22° C | 32% | 1009.5 hPa | 0 mm | - | 216 W/m² | - |
| 1788044230 | 37.78° C | 31% | 1009.5 hPa | 0 mm | - | 227 W/m² | - |
| 1788043930 | 37.78° C | 30% | 1009.8 hPa | 0 mm | - | 239 W/m² | - |
| 1788043629 | 37.78° C | 30% | 1009.8 hPa | 0 mm | - | 251 W/m² | - |
| 1788043341 | 37.78° C | 31% | 1009.8 hPa | 0 mm | - | 266 W/m² | - |
| 1788043029 | 37.78° C | 33% | 1009.8 hPa | 0 mm | - | 275 W/m² | - |
| 1788042584 | 37.78° C | 31% | 1009.8 hPa | 0 mm | - | 303 W/m² | - |
| 1788030608 | 35.56° C | 37% | 1012.2 hPa | 0 mm | - | 555 W/m² | - |
| 1788012013 | 25° C | 54% | 1013.9 hPa | 0 mm | - | 136 W/m² | - |
* Rain latest hour (hover to see other rain measurements)
** Current wind speed in m/s (hover to see current wind gust speed)